Time,TemperatureF,DewpointF,PressureIn,WindDirection,WindDirectionDegrees,WindSpeedMPH,WindSpeedGustMPH,Humidity,HourlyPrecipIn,Conditions,Clouds,dailyrainin,SolarRadiationWatts/m^2,SoftwareType,DateUTC
2017-10-23 00:02:00,65.3,52.3,30.00,SW,215,2.9,7.0,63,0.00,,,0.00,0.0,meteobridge,2017-10-23 04:02:00,
2017-10-23 00:07:00,65.1,52.2,30.01,SW,232,0.0,3.0,63,0.00,,,0.00,0.0,meteobridge,2017-10-23 04:07:00,
2017-10-23 00:12:00,64.9,52.0,30.00,South,178,2.0,8.0,63,0.00,,,0.00,0.0,meteobridge,2017-10-23 04:12:00,
2017-10-23 00:17:00,65.1,51.8,30.00,SSW,199,0.9,5.0,62,0.00,,,0.00,0.0,meteobridge,2017-10-23 04:17:00,
2017-10-23 00:22:00,64.9,51.6,30.00,SSW,207,2.9,4.0,62,0.00,,,0.00,0.0,meteobridge,2017-10-23 04:22:00,
2017-10-23 00:27:00,64.9,51.6,30.00,South,184,0.9,9.0,62,0.00,,,0.00,0.0,meteobridge,2017-10-23 04:27:00,
2017-10-23 00:32:00,64.8,51.4,29.99,SSW,198,2.0,7.0,62,0.00,,,0.00,0.0,meteobridge,2017-10-23 04:32:00,
2017-10-23 00:37:00,64.8,51.8,29.99,SSW,195,2.0,5.0,63,0.00,,,0.00,0.0,meteobridge,2017-10-23 04:37:00,
2017-10-23 00:42:00,64.8,51.8,29.99,SSW,200,2.0,8.0,63,0.00,,,0.00,0.0,meteobridge,2017-10-23 04:42:00,
2017-10-23 00:47:00,64.6,51.3,29.99,SSW,202,2.0,5.0,62,0.00,,,0.00,0.0,meteobridge,2017-10-23 04:47:00,
2017-10-23 00:52:00,64.4,51.6,29.99,South,189,0.9,5.0,63,0.00,,,0.00,0.0,meteobridge,2017-10-23 04:52:00,
2017-10-23 00:57:00,64.2,51.4,29.99,SSW,192,0.9,4.0,63,0.00,,,0.00,0.0,meteobridge,2017-10-23 04:57:00,
2017-10-23 01:02:00,64.2,51.4,29.99,SSW,212,2.9,6.0,63,0.00,,,0.00,0.0,meteobridge,2017-10-23 05:02:00,
2017-10-23 01:07:00,64.2,51.4,29.99,SSW,210,0.9,4.0,63,0.00,,,0.00,0.0,meteobridge,2017-10-23 05:07:00,
2017-10-23 01:12:00,64.0,51.3,29.98,SW,232,0.0,4.0,63,0.00,,,0.00,0.0,meteobridge,2017-10-23 05:12:00,
2017-10-23 01:17:00,64.0,51.3,29.98,SW,232,0.9,3.0,63,0.00,,,0.00,0.0,meteobridge,2017-10-23 05:17:00,
2017-10-23 01:22:00,63.9,51.4,29.98,SW,229,0.0,4.0,64,0.00,,,0.00,0.0,meteobridge,2017-10-23 05:22:00,
2017-10-23 01:27:00,63.7,51.3,29.98,SW,219,2.0,4.0,64,0.00,,,0.00,0.0,meteobridge,2017-10-23 05:27:00,
2017-10-23 01:32:00,63.7,51.3,29.98,South,169,2.9,5.0,64,0.00,,,0.00,0.0,meteobridge,2017-10-23 05:32:00,
2017-10-23 01:37:00,63.7,50.9,29.98,South,174,2.0,8.0,63,0.00,,,0.00,0.0,meteobridge,2017-10-23 05:37:00,
2017-10-23 01:42:00,63.5,51.1,29.98,SSE,163,0.0,2.0,64,0.00,,,0.00,0.0,meteobridge,2017-10-23 05:42:00,
2017-10-23 01:47:00,63.5,51.1,29.98,SSE,168,0.9,7.0,64,0.00,,,0.00,0.0,meteobridge,2017-10-23 05:47:00,
2017-10-23 01:52:00,63.5,50.7,29.98,SSW,202,2.0,5.0,63,0.00,,,0.00,0.0,meteobridge,2017-10-23 05:52:00,
2017-10-23 01:57:00,63.5,51.1,29.98,South,184,0.9,5.0,64,0.00,,,0.00,0.0,meteobridge,2017-10-23 05:57:00,
2017-10-23 02:02:00,63.3,50.9,29.97,SSW,203,0.9,4.0,64,0.00,,,0.00,0.0,meteobridge,2017-10-23 06:02:00,
2017-10-23 02:07:00,63.3,50.9,29.97,South,190,2.9,6.0,64,0.00,,,0.00,0.0,meteobridge,2017-10-23 06:07:00,
2017-10-23 02:12:00,63.3,50.9,29.97,SSW,194,2.0,4.0,64,0.00,,,0.00,0.0,meteobridge,2017-10-23 06:12:00,
2017-10-23 02:17:00,63.3,51.4,29.97,SSW,205,0.0,4.0,65,0.00,,,0.00,0.0,meteobridge,2017-10-23 06:17:00,
2017-10-23 02:22:00,63.3,50.9,29.97,South,186,0.0,3.0,64,0.00,,,0.00,0.0,meteobridge,2017-10-23 06:22:00,
2017-10-23 02:27:00,63.3,50.9,29.97,SSW,192,2.0,9.0,64,0.00,,,0.00,0.0,meteobridge,2017-10-23 06:27:00,